Location: Czekanka
(50.4925°N, 19.2643°E)
Time: 15:10:37
(UTC+00:00)

SL-16 R/B - Pass Details

Date: 23 September 2024
Orbit: 842 x 846 km, 71.0° (Epoch: 07 October)

Event Time Altitude Azimuth Distance (km) Brightness Sun altitude
Rises 03:09:11 0° 328° (NNW) 3,412 5.2 -13.7°
Reaches altitude 10° 03:11:39 10° 326° (NW) 2,472 4.5 -13.3°
Maximum altitude 03:17:15 65° 246° (WSW) 928 2.2 -12.5°
Drops below altitude 10° 03:22:49 10° 166° (SSE) 2,455 4.6 -11.6°
Sets 03:25:16 0° 163° (SSE) 3,386 5.4 -11.2°
